Погода в Семипалатинске

Погода в Семипалатинске : погода сейчас, прогноз погоды и архив. Всё, что Вы хотите узнать о погоде в Семипалатинске!

Хотите узнать прогноз погоды в Семипалатинске? Тогда Вам сюда: Погода в Семипалатинске

Поиск расширенной информации на нашем сайте:

Полезная информация:

Другие новости

Новости СМИ2

Главная страница сайта

Новости сайта

03.07.2017

Напоминаем, что на нашем специализированном сайте Метеоцентр.Азия вы можете получить высокодетализированные автоматические прогнозы погоды по пунктам России, СНГ и мира в авиационном формате (включающие направление и скорость ветра, видимость, явления погоды, количество и форму облачности, нижнюю и верхнюю границу облачности).

Рекомендуем:

Погода в Семипалатинске - сегодня

Время (UTC), дата Ветер
(°,м/с) 
Видим.   Явления Облачность Т
(°С)
Тd
(°С)
f(%) Тe
(°С)
Pmin
(гПа)
dP
(гПа)
Po
(мм)
O2
(г/м3)
Тmin Tmax R s Состояние
почвы
21 18.05.19 180 (Ю) 6{16}  н/о    8/0 средняя, верхняя 
[Ac trans|Ci fib]
+13.5 -2.7 32 +13  1008.3  -0.7  739  284           
00 19.05.19 160 (Ю) 10  10 км    6/4 1000 м верхняя 
[Sc|Ci fib]
+12.2 -0.8 41 +10  1008.1  -0.3  739  285           
03 19.05.19 140 (ЮВ) 10 км  {ливн. осадки}  9/9 600 м кучево-дожд. 
[Cb calv]
+16.2 +1.3 36 +16  1007.7  -0.1  739  281      0.0     
06 19.05.19 230 (ЮЗ) 10 км  {ливн. осадки}  9/9 600 м кучево-дожд. 
[Cb calv]
+21.2 +3.9 32 +21  1007.5  0.2  739  276  +11.7    0.0     
09 19.05.19 290 (З) 10 км    9/9 600 м кучево-дожд. 
[Cb calv]
+24.8 +6.4 31 +25  1006  -1.1  738  272           
12 19.05.19 200 (Ю) 10 км  в посл. час ливневой дождь  9/9 600 м кучево-дожд. 
[Cb calv]
+22.9 +10 44 +24  1006.5  0.3  738  273           
15 19.05.19 180 (Ю) н/о  слаб. ливневой дождь  9/9 600 м кучево-дожд. 
[Cb calv]
+15.4 +13.6 89 +23  1008.4  1.3  739  279    +25.7     
18 19.05.19 140 (ЮВ) н/о  {ливн. осадки}  8/6 600 м кучево-дожд., верхняя 
[Cb calv|Ci fib]
+14 +12 88 +19  1008.7  0.2  739  281    +25.7     
21 19.05.19 тихо ()   н/о    4/4 1000 м 
[Sc]
+11.9 +10 88 +13  1008.6  -0.3  739  284           
00 20.05.19 тихо ()   4000 м  дымка  1/1 1000 м 
[Sc diur, vesp]
+12.5 +9.6 82 +13  1010  1.4  740  283           
03 20.05.19 тихо ()   10 км    ясно 
+18.3 +11 62 +21  1010.5  741  278      0.0     
06 20.05.19 180 (Ю) 10 км    3/3 1000 м 
[Cu hum]
+23.3 +5.6 32 +23  1009  -1.1  740  274  +11.4    0.0     
09 20.05.19 200 (Ю) 10 км    8/8 600 м кучево-дожд. 
[Cb calv]
+24.7 +4.5 27 +25  1007  -1.9  739  272           
12 20.05.19 200 (Ю) 10 км  слаб. ливневой дождь  10/10 600 м кучево-дожд. 
[Cb calv]
+19.3 +7.4 46 +20  1007.1  -0.3  738  277           
15 20.05.19 180 (Ю) н/о  {ливн. осадки}  9/6 1000 м средняя 
[Sc diur, vesp|Ac trans]
+18 +8.6 54 +18  1004.4  -2.7  736  277    +25.4     
18 20.05.19 230 (ЮЗ) н/о  слаб. ливневой дождь  10/10 600 м кучево-дожд. 
[Cb calv]
+16.7 +9.7 63 +18  1003.5  -1  736  278    +25.4     
21 20.05.19 230 (ЮЗ) н/о  {ливн. осадки}  9/9 600 м кучево-дожд. 
[Cb calv]
+15.5 +8 61 +16  1003.1  -0.5  735  279           
00 21.05.19 200 (Ю) 10 км  {ливн. осадки}  9/8 600 м кучево-дожд., средняя 
[Cb calv|Ac trans]
+15.1 +8.4 64 +16  1004.2  1.1  736  280           
03 21.05.19 140 (ЮВ) 10 км  слаб. ливневой дождь  10/10 600 м кучево-дожд. 
[Cb calv]
+12.6 +8.9 78 +12  1006.3  1.8  737  282      0.9     
06 21.05.19 290 (З) 10 км  слаб. ливневой дождь  10/10 600 м кучево-дожд. 
[Cb calv]
+9.8 +6.6 80 +10  1008.6  739  286  +12.6    0.9     
09 21.05.19 320 (СЗ) 10 км  слаб. ливневой дождь  9/6 600 м кучево-дожд., средняя 
[Cb calv|Ac trans]
+10.5 +7.4 81 +11  1008.4  -0.1  739  285           
12 21.05.19 230 (ЮЗ) 10 км  {ливн. осадки}  9/6 600 м кучево-дожд., средняя 
[Cb calv|Ac trans]
+13.7 +7.2 65 +14  1008.8  0.6  739  282           
15 21.05.19 250 (З) 10 км    8/8 1000 м 
[Sc]
+12.4 +5.9 64 +13  1010.6  1.7  741  284    +14.8     
18 21.05.19 тихо ()   н/о    4/0 средняя 
[Ac trans]
+5.6 +1.4 74 +6  1011.9  0.7  741  292    +14.8     
21 21.05.19 тихо ()   н/о    6/6 1000 м 
[Sc]
+4.7 +0.6 75 +5  1012.2  0.2  741  293           
Время (UTC), дата Ветер
(°,м/с) 
Видим.   Явления Облачность Т
(°С)
Тd
(°С)
f(%) Тe
(°С)
Pmin
(гПа)
dP
(гПа)
Po
(мм)
O2
(г/м3)
Тmin Tmax R s Состояние
почвы

Для получения пояснительной информации подведите курсор к названию столбца.

ПОГОДА в Семипалатинске - архив

Всё, что Вы хотите узнать о погоде в Семипалатинске - удобно и подробно!

Выберите нужную дату (начиная с 1 января 2018* года) и нажмите кнопку "Найти".
Будут отображены архивные сводки погоды по пункту Семипалатинск, начиная с указанной даты.


Отображать данные в формате CSV (для использования в таблицах Excel)


Внимание! Наш архив погоды предназначен исключительно для личного некоммерческого использования в познавательных целях. Если Вам необходимы официальные справки о состоянии погоды (для производственных, юридических, коммерческих и т.п. целей), обращайтесь в органы Росгидромета.

*Примечание: данная дата относится к архиву по метеостанциям СССР (Россия, СНГ, Балтия).
Архив по метеостанциям Зарубежной Европы и Азии (кроме Китая) хранится 10 дней, по другим регионам земного шара (Китай, Африка, Америка, Австралия, Океания) - 1 день.

Семипалатинск - район местоположения метеостанции


Название, широта, долгота, высота метеостанции:
Семипалатинск 50.4°ш. 80.3°д. 196 м над ур. моря [Казахстан]

Дополнительная информация

В oтличие oт бoльшинства пoгoдных сайтoв мы публикуем пoдрoбную метеoинфoрмацию в детальнoм прoфессиoнальнoм фoрмате.

Характеристики температуры и влажнoсти вoздуха измеряются на высoте 2 м в тени вдали oт зданий и деревьев.
Скoрoсть ветра измеряется на высoте 10 м (на урoвне рoста челoвека скoрoсть ветра ниже в 1.5-2 раза). Если метеoстанция нахoдится в гoрoде или в лесу, тo скoрoсть ветра занижена на 2-4 м/с пo сравнению с oткрытым местoм. Скoрoсть ветра над акватoриями крупных рек и oзёр, а также на вершинах хoлмoв на 2-5 м/с выше, чем в oбычных услoвиях.
Атмoсфернoе давление в разных тoчках местнoсти мoжет значительнo oтличаться oт давления на метеoстанции, в зависимoсти oт услoвий рельефа (при пoдъёме на 10 м давление пoнижается примернo на 1 мм рт.ст.).